Location: St Paul
(33.9360°N, 83.4200°W)
Time: 19:19:21
(UTC-04:00)

METEOR-M - Visible Passes

Search period start: 19 March 2019 00:00
Search period end: 29 March 2019 00:00
Orbit: 815 x 820 km, 98.4° (Epoch: 18 March)

Date Brightness Start Highest point End Pass type
(mag) Time Alt. Az. Time Alt. Az. Time Alt. Az.
19 Mar 6.2 06:41:14 10° NE 06:45:55 31° E 06:50:35 10° SSE visible
20 Mar 7.0 06:20:40 10° NE 06:24:22 19° E 06:28:05 10° SE visible
21 Mar 7.4 06:01:20 10° ENE 06:02:47 11° E 06:04:14 10° ESE visible
23 Mar 5.5 06:55:23 10° NNE 07:00:28 43° E 07:05:31 10° S visible
24 Mar 6.5 06:34:30 10° NE 06:38:59 27° E 06:43:25 10° SSE visible
25 Mar 7.1 06:14:08 10° NE 06:17:25 16° E 06:20:42 10° SE visible
28 Mar 5.8 06:48:36 10° NNE 06:53:32 38° E 06:58:27 10° SSE visible
